Terminal Aerodrome Forecast
Issued by NWS Mt. Holly, NJ

Home | Current Version | Previous Version | Text Only | Print | Product List | Glossary On
Versions: 1 2 3 4 5 6 7 8 9 10 11 12 13 14 15 16 17 18 19 20 21 22 23 24 25 26 27 28 29 30 31 32
000
FTUS41 KPHI 292300
TAFPHL
TAF
KPHL 292321Z 3000/3106 29006KT P6SM BKN080
     FM300300 27004KT P6SM SCT080
     FM301400 26008KT P6SM SCT050
     FM302200 22006KT P6SM SCT050=

USA.gov is the U.S. government's official web portal to all federal, state and local government web resources and services.